This is the latest recevied weather packets stored in our database for station/object W4MLN-3. If no packets are shown the sender has not sent any weather packets the latest 10 day(s).
| Time | Temp. | Humidity | Pressure | Rain* | Wind** | Luminosity | Snow |
|---|---|---|---|---|---|---|---|
| 1777414203 | 19.44° C | 66% | 1016.1 hPa | 0 mm | - | - | - |
| 1777413903 | 19.44° C | 65% | 1016.5 hPa | 0 mm | - | - | - |
| 1777413603 | 19.44° C | 64% | 1016.7 hPa | 0 mm | - | - | - |
| 1777413324 | 20° C | 64% | 1016.7 hPa | 0 mm | - | - | - |
| 1777413003 | 20° C | 62% | 1016.8 hPa | 0 mm | - | - | - |
| 1777412703 | 20.56° C | 63% | 1016.9 hPa | 0 mm | - | - | - |
| 1777412403 | 20.56° C | 65% | 1016.9 hPa | 0 mm | - | - | - |
| 1777412125 | 20° C | 64% | 1016.9 hPa | 0 mm | - | - | - |
| 1777411803 | 20° C | 65% | 1017 hPa | 0 mm | - | - | - |
| 1777411503 | 20° C | 66% | 1017 hPa | 0 mm | - | - | - |
| 1777411203 | 20° C | 65% | 1017.2 hPa | 0 mm | - | - | - |
| 1777410903 | 20° C | 64% | 1017.2 hPa | 0 mm | - | - | - |
| 1777410604 | 20° C | 64% | 1017 hPa | 0 mm | - | - | - |
| 1777410345 | 20° C | 65% | 1017 hPa | 0 mm | - | - | - |
| 1777410003 | 20.56° C | 65% | 1017.2 hPa | 0 mm | - | - | - |
| 1777409703 | 20.56° C | 63% | 1017 hPa | 0 mm | - | - | - |
| 1777409403 | 21.11° C | 62% | 1017.3 hPa | 0 mm | - | - | - |
| 1777409103 | 21.11° C | 63% | 1017.4 hPa | 0 mm | - | - | - |
| 1777408803 | 21.11° C | 61% | 1017.2 hPa | 0 mm | - | - | - |
| 1777408503 | 21.11° C | 62% | 1017.1 hPa | 0 mm | - | - | - |
| 1777408204 | 21.11° C | 62% | 1017.1 hPa | 0 mm | - | - | - |
| 1777407903 | 21.11° C | 64% | 1017 hPa | 0 mm | - | - | - |
| 1777407603 | 21.11° C | 61% | 1016.9 hPa | 0 mm | - | - | - |
| 1777407303 | 21.11° C | 62% | 1017 hPa | 0 mm | - | - | - |
| 1777407003 | 21.11° C | 61% | 1016.9 hPa | 0 mm | - | - | - |
* Rain latest hour (hover to see other rain measurements)
** Current wind speed in m/s (hover to see current wind gust speed)